FENGYUN 1C DEB

Satellite information

Favourite Embed

Satellite Type and Status

DEBRISIN ORBIT

Key statistics

Satellite FENGYUN 1C DEB at a glance.

Uptime

9555

Days in orbit

Revolutions

≈ 14.3

Per day

Orbit

SSO

Sun Synchronous Orbit

Inclination

98.9

Latest

Satellite identification and parameters

Extended collection of information and parameters for FENGYUN 1C DEB.

Object identification

Identified? True

Debris? True

Object name: FENGYUN 1C DEB

International designator: 1999-025EMF

Object number (NORAD): 37714

Object ID (CCSDS): 37714

Country: PEOPLES REPUBLIC OF CHINA (PRC)

Current information (Y/N): Y

RCS size: SMALL

Orbital parameters

Period: 100.699 minutes

Inclination: 98.8893 deg

SMA: 7169.845 km

Apoapsis: 827.923 km

Periapsis: 755.497 km

RAAN: 283.5691 deg

Eccentricy: 0.0050507

Argument of periapsis: 217.5835 deg

Mean anomaly: 142.1813 deg

Mean motion: 14.30006785 rev/day

Mean motion (dot): 0.00003456 rev/day2

B* drag term: 0.0013385 1/REarth

Two-line elements (TLE)

Creation date: June 25, 2025, 2:12 a.m.

Reference frame: TEME

Reference center: EARTH

Epoch: June 24, 2025, 6:01 p.m. UTC

TLE line 0: 0 FENGYUN 1C DEB

TLE line 1: 1 37714U 99025EMF 25175.75093604 .00003456 00000-0 13385-2 0 9991

TLE line 2: 2 37714 98.8893 283.5691 0050507 217.5835 142.1813 14.30006785550645

Live tracking on map

Real-time ground track for satellite FENGYUN 1C DEB.

In-orbit conjunctions

A list of the most updated potential collisions computed for object FENGYUN 1C DEB.

Target Orbit TCA Probability of collision Miss distance Type
CZ-6A DEB LEO 2025-02-27 07:03:04 0.0003954653 171.0 (m) DEBRIS
OV1-20/OV1-21 AKM LEO 2024-07-25 18:28:38 0.0003232334 211.0 (m) ROCKET BODY

Associated space launch

Chinese polar orbiting meteorological satellite

FENGYUN 1C DEB was lifted into orbit during the mission ‘Long March 4B | Feng Yun 1C’, on board a Long March 4B space rocket.

The launch took place on May 10, 1999, 1:33 a.m. from Launch Complex 7.

For more information about the launch, click the button.

Launch to space Long March 4B | Feng Yun 1C
Long March 4B | Feng Yun 1C

Agency: N/A

Status: Launch Successful

Launch date: May 10, 1999, 1:33 a.m. UTC

Rocket: Long March 4B

Launch pad: Launch Complex 7

Location: Taiyuan Satellite Launch Center, People's Republic of China

...

Latest news about this satellite

There are no fresh news available about this satellite. Check back as we update our databases every day.


Newsletter sign-up

Weekly statistics, charts and insights to help you stay on top of the space industry.